Location: Biharia
(46.4333°N, 22.8000°E)
Time: 00:03:12
(UTC+00:00)

FENGYUN 1C DEB - Pass Details

Date: 16 August 2022
Orbit: 796 x 915 km, 98.9° (Epoch: 28 September)

Event Time Altitude Azimuth Distance (km) Brightness Sun altitude
Rises 23:47:00 0° 11° (NNE) 3,431 ? -27.8°
Reaches altitude 10° 23:49:25 10° 9° (N) 2,473 ? -27.7°
Maximum altitude 23:54:48 62° 290° (WNW) 924 ? -27.3°
Enters shadow 23:54:49 62° 289° (WNW) 924 ? -27.3°
